Regional Weather Roundup
Issued by NWS Melbourne, FL

Current Version |  Previous Version |  Text Only |  Print | Product List |  Glossary On
Versions: 1 2 3 4 5 6 7 8 9 10 11 12 13 14 15 16 17 18 19 20 21 22 23 24 25 26 27 28
904
ASUS42 KMLB 280310
RWRMLB
HOURLY WEATHER ROUNDUP AROUND FLORIDA
NATIONAL WEATHER SERVICE OFFICE MELBOURNE FL
1100 PM EDT MON MAY 27 2024

CITY           SKY/WX    TMP DP  RH WIND       PRES   REMARKS
MELBOURNE      CLEAR     83  76  79 S6        29.99R
FORT PIERCE    CLEAR     83  70  64 S6        29.99R
ORLANDO INTL   PTCLDY    83  74  74 VRB3      30.02R
DAYTONA BEACH  MOCLDY    79  76  90 SW5       30.01R
VERO BEACH     CLEAR     84  72  67 SE7       30.00R
$$
...ELSEWHERE ACROSS CENTRAL FLORIDA...

CITY           SKY/WX    TMP DP  RH WIND       PRES   REMARKS
PATRICK AFB    CLEAR     83  77  82 S13       29.97R
KSC            PTCLDY    82  77  84 S3        29.98R
CAPE CANAVERAL PTCLDY    82  77  84 S9        29.97R
SEBASTIAN      PTCLDY    83  74  75 SE7       30.00R
ORLANDO EXEC   PTCLDY    84  74  71 NE5       30.02R
LEESBURG       MOCLDY    82  70  66 NW7       30.03R
SANFORD        PTCLDY    82  74  76 E3        30.02R
DELAND         PTCLDY    80  73  80 CALM      30.03R
WINTER HAVEN   PTCLDY    83  67  58 NW8       30.02R
KISSIMMEE      PTCLDY    82  67  60 NW8       30.03R
OKEECHOBEE     PTCLDY    86  73  66 S8G14     29.98R
TAMPA          PTCLDY    84  74  71 W8        30.03R
$$
...NORTHERN FLORIDA...

CITY           SKY/WX    TMP DP  RH WIND       PRES   REMARKS
PALM COAST     MOCLDY    77  74  88 S3        30.02R
ST AUGUSTINE   MOCLDY    80  73  79 S5        30.02R
OCALA          PTCLDY    79  71  76 CALM      30.05R
GAINESVILLE    PTCLDY    78  72  81 W7        30.05R
JACKSONVILLE   MOCLDY    82  70  66 W9        29.98R
TALLAHASSEE    MOCLDY    82  73  74 SW6       29.99R
$$
...ALONG THE SOUTHEAST COAST TO THE KEYS...

CITY           SKY/WX    TMP DP  RH WIND       PRES   REMARKS
STUART         CLEAR     84  72  65 S5        30.00R
WEST PALM BCH  PTCLDY    87  78  74 S10       30.01R HX 100
MIAMI          MOCLDY    85  74  69 S6        30.03R
KEY WEST       CLEAR     85  77  77 E7        30.01R
$$
...MARINE REPORTS...

STATION/POSITION TIME  TEMP    WIND        PRES    WAVE   SWELL
                       AIR SEA DIR/SP/G            HT/PER HT/PER
                 (UTC) (F)     (DEG/KT/KT) (MB)    (FT/S) (FT/S)
ST AUGUSTINE FP  0300   80 81  210/  5/  7 1016.0R
10NM E OF ST AUG 0226      80                N/A     2/ 3
13NM NE OF PONCE 0235      80                N/A     1/ 8
20NM E CAPE CANA 0250   83 82  170/ 10/ 12 1016.1R   1/ 8   2/ 8
120 E NEW SMYRNA 0250   81 82  150/ 14/ 17 1015.7R   2/ 5   2/ 8
TRIDENT PIER     0230   81 87  170/  9/ 12 1015.3R
4NM E PORT CANAV 0226      82                N/A     2/13
6NM NE FPR INLET 0226      81                N/A     2/ 3
SETTLEMENT PT GB 0300   82     150/  7/ 10 1016.9R
$$